Location: Black Swamp Observatory
(41.3920°N, 84.1250°W)
Time: 18:43:00
(UTC-04:00)

Transit 2A Rocket - Pass Details

Date: 23 January 2022
Orbit: 591 x 910 km, 66.7° (Epoch: 20 May)

Event Time Altitude Azimuth Distance (km) Brightness Sun altitude
Exits shadow 05:15:34 25° 165° (SSE) 1,487 6.6 -29.9°
Drops below altitude 10° 05:17:35 10° 161° (SSE) 2,218 7.6 -29.5°
Sets 05:19:49 0° 159° (SSE) 3,086 8.4 -29.1°
